Content
SEND FEEDBACK

Daily
Averages
Monthly
Summary
United States of America

MELROSE, MASSACHUSETTS


Home > North America > United States > Massachusetts
Elevation: 170 feet     Latitude: 42 27N     Longitude: 071 05W

WEATHER
 
SELECT A DAY
Number of Records: 204,797;   Date Range: 1/1/95 - 10/1/14
 
SHARE

PRINT THIS DATA

[ ← Previous Day ]
WEATHER ALMANAC - DECEMBER 31, 2012
[ Next Day → ]
[ °C ]   °F
Weather ElementAverageHighLow
Temperature28.4 °F34 °F (11:54 pm)21 °F (5:54 am)
Dewpoint17.5 °F21.9 °F (12:54 pm)8.1 °F (1:54 am)
Humidity63.9 %69 % (8:54 am)55 % (1:54 am)
Barometer29.93 in30.04 in (6:54 am)29.77 in (11:54 pm)
Wind Speed13.7 mph20.7 mph (1:54 pm)
Wind Gust27.6 mph (1:54 pm)
Weather ElementAverage
Visibility10 mi
Wind DirectionWSW (249.6 °)

Weather ElementTotal
Precipitation---
Heating Degree Days37.5 (Base 65)
Averaged from 23 records on December 31, 2012
WEATHER CONDITIONS BREAKOUT
WIND DIRECTION BREAKOUT
WEATHER BY HOUR - DECEMBER 31, 2012
[ °C ]   °F
Local TimeTemperatureDewpointHumidityBarometerVisibilityWind DirectionWind SpeedGust SpeedPrecipitationEventsConditions
1:54 AM21.9 °F8.1 °F55 %29.98 in10.0 miWNW (290°)15.0 mphClear
2:54 AM23.0 °F9.0 °F55 %30.00 in10.0 miWNW (290°)16.1 mph21.9 mphClear
3:54 AM23.0 °F10.0 °F58 %30.00 in10.0 miSW (220°)9.2 mph20.7 mphClear
4:54 AM21.9 °F10.0 °F60 %30.01 in10.0 miWest (260°)9.2 mphClear
5:54 AM21.0 °F10.9 °F65 %30.02 in10.0 miWSW (240°)13.8 mphClear
6:54 AM21.0 °F10.9 °F65 %30.04 in10.0 miSW (230°)11.5 mphScattered Clouds
7:54 AM21.9 °F12.0 °F66 %30.03 in10.0 miSW (230°)15.0 mphMostly Cloudy
8:54 AM24.1 °F15.1 °F69 %30.03 in10.0 miSW (230°)13.8 mphMostly Cloudy
9:54 AM27.0 °F17.1 °F66 %30.03 in10.0 miWSW (240°)18.4 mph24.2 mphOvercast
10:54 AM28.0 °F19.0 °F69 %30.01 in10.0 miWSW (240°)15.0 mphOvercast
11:54 AM30.0 °F21.0 °F69 %29.97 in10.0 miWSW (240°)13.8 mphMostly Cloudy
12:54 PM32.0 °F21.9 °F66 %29.93 in10.0 miWest (280°)16.1 mph24.2 mphScattered Clouds
1:54 PM32.0 °F21.9 °F66 %29.92 in10.0 miWest (280°)20.7 mph27.6 mphMostly Cloudy
2:54 PM33.1 °F21.9 °F64 %29.92 in10.0 miWest (260°)15.0 mphMostly Cloudy
3:54 PM33.1 °F21.9 °F64 %29.91 in10.0 miWest (280°)12.7 mphMostly Cloudy
4:54 PM33.1 °F21.0 °F61 %29.89 in10.0 miWest (260°)9.2 mphMostly Cloudy
5:54 PM30.9 °F21.9 °F69 %29.88 in10.0 miSW (230°)8.1 mphMostly Cloudy
6:54 PM30.9 °F21.9 °F69 %29.87 in10.0 miWSW (240°)10.4 mphMostly Cloudy
7:54 PM32.0 °F21.0 °F64 %29.85 in10.0 miWSW (240°)13.8 mph23.0 mphOvercast
8:54 PM32.0 °F21.0 °F64 %29.82 in10.0 miWSW (240°)12.7 mphOvercast
9:54 PM33.1 °F21.0 °F61 %29.81 in10.0 miWSW (240°)15.0 mph21.9 mphOvercast
10:54 PM33.1 °F21.9 °F64 %29.79 in10.0 miWSW (240°)13.8 mph23.0 mphOvercast
11:54 PM34.0 °F21.9 °F61 %29.77 in10.0 miWSW (240°)17.3 mphOvercast
Hourly data recorded from KBOS, located miles away from Melrose, Massachusetts







STORIES FROM OUR PARTNERS